Taunton, MA

8:39 PM EDT on March 28, 2017 (GMT -0400)
Taunton Municipal

Weather History for KTAN - December, 2011

Change the Weather History Date:

Saturday, December 17, 2011

  Actual Average Record
Temperature  
Mean Temperature 34 °F -  
Max Temperature 43 °F 40 °F 64 °F (2000)
Min Temperature 25 °F 21 °F -7 °F (1951)
Degree Days  
Heating Degree Days 31    
Moisture  
Dew Point 24 °F    
Average Humidity 67    
Maximum Humidity 96    
Minimum Humidity 43    
Precipitation  
Precipitation 0.00 in - - ()
Sea Level Pressure  
Sea Level Pressure 30.05 in    
Wind  
Wind Speed 4 mph (NNW)    
Max Wind Speed 12 mph    
Max Gust Speed 18 mph    
Visibility 10 miles    
Events      
Averages and records for this station are not official NWS values.
T = Trace of Precipitation, MM = Missing Value Source: NWS Daily Summary

Daily Weather History Graph

Daily Weather History Graph

Search for Another Location

Airport or City:

Trip Planner

Search our weather history database for the weather conditions in past years. The results will help you decide how hot, cold, wet, or windy it might be!

Date:

Astronomy

Dec. 17, 2011 Rise Set
Actual Time 7:05 AM EST 4:14 PM EST
Civil Twilight 6:34 AM EST 4:46 PM EST
Nautical Twilight 5:59 AM EST 5:21 PM EST
Astronomical Twilight 5:25 AM EST 5:55 PM EST
Moon 11:58 PM EST (12/17) 11:13 AM EST (12/17)
Length of Visible Light 10h 11m
Length of Day
9h 08m
Waning Gibbous, 54% of the Moon is Illuminated
Dec 17
Waning Gibbous
Dec 17
Last Quarter
Dec 24
New
Jan 1
First Quarter
Jan 9
Full

Hourly Weather History & Observations

Time (EST) Temp. Windchill Dew Point Humidity Pressure Visibility Wind Dir Wind Speed Gust Speed Precip Events Conditions
12:52 AM 33.1 °F - 30.0 °F 89% 30.04 in 10.0 mi Calm Calm - N/A   Clear
1:52 AM 30.9 °F - 28.9 °F 92% 30.04 in 10.0 mi Calm Calm - N/A   Clear
2:52 AM 30.0 °F - 27.0 °F 88% 30.05 in 10.0 mi Calm Calm - N/A   Clear
3:52 AM 28.0 °F - 26.1 °F 92% 30.04 in 10.0 mi Calm Calm - N/A   Clear
4:52 AM 27.0 °F - 25.0 °F 92% 30.04 in 10.0 mi Calm Calm - N/A   Clear
5:52 AM 26.1 °F 21.9 °F 24.1 °F 92% 30.04 in 10.0 mi ESE 3.5 mph - N/A   Clear
6:52 AM 25.0 °F - 23.0 °F 92% 30.06 in 9.0 mi Calm Calm - N/A   Clear
7:52 AM 27.0 °F - 26.1 °F 96% 30.05 in 10.0 mi Calm Calm - N/A   Clear
8:52 AM 36.0 °F 32.1 °F 28.9 °F 76% 30.06 in 10.0 mi West 4.6 mph - N/A   Partly Cloudy
9:52 AM 39.9 °F 36.7 °F 28.0 °F 63% 30.06 in 10.0 mi NW 4.6 mph - N/A   Mostly Cloudy
10:52 AM 42.1 °F 37.7 °F 28.0 °F 58% 30.04 in 10.0 mi NW 6.9 mph - N/A   Overcast
11:52 AM 42.1 °F 37.1 °F 28.0 °F 58% 30.01 in 10.0 mi North 8.1 mph - N/A   Overcast
12:38 PM 42.8 °F 38.0 °F 28.4 °F 57% 30.01 in 2.0 mi NNW 8.1 mph - N/A   Haze
12:48 PM 42.8 °F 37.5 °F 28.4 °F 57% 30.00 in 10.0 mi North 9.2 mph - N/A   Overcast
12:52 PM 43.0 °F 37.7 °F 28.0 °F 56% 30.01 in 10.0 mi North 9.2 mph - N/A   Overcast
1:52 PM 39.9 °F 34.5 °F 27.0 °F 60% 30.01 in 10.0 mi North 8.1 mph - N/A   Overcast
2:52 PM 39.0 °F 34.0 °F 26.1 °F 60% 30.03 in 10.0 mi NNW 6.9 mph - N/A   Overcast
3:52 PM 37.9 °F 34.4 °F 24.1 °F 57% 30.05 in 10.0 mi North 4.6 mph - N/A   Overcast
4:52 PM 37.0 °F 29.8 °F 21.9 °F 54% 30.07 in 10.0 mi NNW 10.4 mph 17.3 mph N/A   Overcast
5:52 PM 36.0 °F 29.0 °F 19.9 °F 52% 30.07 in 10.0 mi North 9.2 mph - N/A   Overcast
6:52 PM 34.0 °F 25.5 °F 18.0 °F 52% 30.09 in 10.0 mi North 11.5 mph 17.3 mph N/A   Overcast
7:52 PM 33.1 °F 26.1 °F 16.0 °F 50% 30.11 in 10.0 mi NNW 8.1 mph 16.1 mph N/A   Overcast
8:52 PM 30.9 °F 23.5 °F 12.0 °F 46% 30.12 in 10.0 mi North 8.1 mph 18.4 mph N/A   Overcast
10:52 PM 28.9 °F 21.1 °F 9.0 °F 43% 30.12 in 10.0 mi NNW 8.1 mph - N/A   Mostly Cloudy
11:52 PM 28.0 °F 19.3 °F 9.0 °F 45% 30.11 in 10.0 mi NNW 9.2 mph - N/A   Overcast